Simultaneous Nadir Overpasses (SNOs) Predictions

Prediction of SNOs between METOP-C and LANDSAT-8 Satellite Orbit:

Table of predicted SNOs for the next 14.0 days since TLE Epoch: 9/30/2023
Index Date (METOP-C) Time (METOP-C) Lat,Lon (METOP-C) SZA (METOP-C ) Date (LANDSAT-8) Time (LANDSAT-8) Lat,Lon (LANDSAT-8) SZA (LANDSAT-8 ) Distance(km) Time Diff (sec)
1 10/02/2023 06:29:05 81.11, 122.21 86.86 10/02/2023 06:29:45 81.11, 122.34 86.89 2.15 40
2 10/02/2023 07:19:44 -81.13, -69.81 93.05 10/02/2023 07:19:11 -81.13, -69.72 93.06 1.49 33
3 10/05/2023 02:03:28 81.12,-170.93 88.02 10/05/2023 02:03:58 81.13,-170.96 88.03 0.59 30
4 10/05/2023 02:54:07 -81.15, -2.87 91.88 10/05/2023 02:53:24 -81.15, -2.99 91.91 2.06 43
5 10/07/2023 21:37:53 81.12,-104.52 89.12 10/07/2023 21:38:12 81.13,-104.51 89.13 0.47 19
6 10/07/2023 22:28:32 -81.15, 63.61 90.77 10/07/2023 22:27:38 -81.15, 63.48 90.81 2.28 54
7 10/10/2023 17:12:17 81.13, -37.82 90.24 10/10/2023 17:12:25 81.13, -37.95 90.23 2.29 8
8 10/10/2023 18:02:58 -81.14, 129.64 89.73 10/10/2023 18:01:52 -81.13, 129.69 89.76 0.95 66
9 10/13/2023 11:56:03 -81.10,-139.69 88.83 10/13/2023 11:57:12 -81.10,-139.64 88.79 0.83 69



Historial Predications of SNOs between METOP-C and LANDSAT-8
